RH
94 91 94 76 41 68 80 75 83 91 78 74 73 72 78 74 68 43 60 56 70 71 71 65 62 71 68 64 66 65 64 66 68 71 60 56 57 56 55 42 45 54 58 62 54 60 67 47 51 57 55 47 48 49
98 92 94 81 59 27 81 86 74 81 87 81 75 76 77 82 70 54 56 48 63 73 76 66 67 67 69 70 82 65 62 58 70 74 62 54 56 52 48 52 48 60 53 65 53 59 47 44 52 52 50 54 50 53
98 93 94 86 67 26 68 89 87 70 76 76 78 82 78 81 72 61 46 46 64 71 72 66 64 64 66 68 70 86 70 70 66 70 77 69 66 57 60 55 45 47 49 64 55 44 49 50 50 49 49 51 57 57
96 95 95 93 71 36 60 83 86 87 72 74 82 85 75 76 63 57 50 44 60 63 90 75 60 60 63 66 71 69 70 67 66 76 82 77 70 55 60 59 59 55 58 58 57 48 47 50 46 55 58 56 59 58
97 99 94 97 74 34 66 80 86 89 79 72 79 85 75 66 75 64 50 46 46 72 86 73 60 62 63 63 66 68 68 73 76 83 96 86 69 66 64 70 77 61 62 66 63 49 52 59 52 53 62 61 55 52
99 100 96 98 76 38 76 82 85 87 80 74 73 83 82 62 66 77 84 56 46 58 94 94 66 61 62 62 61 63 67 68 75 81 81 73 67 80 89 80 47 42 44 47 50 51 61 61 57 55 57 57 53 51
99 98 92 99 78 35 66 80 84 83 78 76 77 84 85 66 65 73 80 75 51 50 86 94 95 68 65 64 65 69 64 74 76 82 81 73 80 91 92 80 45 42 48 55 55 61 64 63 68 61 58 55 56 53
98 99 97 99 80 33 62 77 79 85 89 88 89 88 74 61 60 68 64 56 55 66 89 98 96 85 67 76 78 69 76 75 83 86 72 76 78 82 95 72 51 46 56 60 59 54 59 64 65 66 59 53 49 48
98 100 99 100 78 30 60 77 87 87 86 86 78 74 62 65 67 78 64 60 54 71 97 95 95 95 72 78 77 76 74 84 80 86 79 72 80 90 72 61 56 55 63 64 69 57 56 59 60 57 51 43 42 43
97 100 100 100 74 27 60 77 96 95 81 75 68 70 79 72 62 66 74 84 91 93 91 96 90 93 84 81 84 84 75 91 95 85 79 88 86 60 61 56 51 58 62 68 74 70 60 67 55 46 46 42 44 51
97 100 100 100 70 27 69 80 98 96 81 83 75 85 76 64 69 70 92 93 88 88 90 91 90 90 75 93 87 76 92 94 97 92 91 94 91 66 53 55 54 64 63 64 58 60 60 62 70 51 53 56 64 67
96 100 100 100 68 32 76 82 96 93 88 82 70 64 67 76 91 82 90 82 81 83 77 85 81 80 83 81 90 82 93 94 97 87 94 97 87 69 63 62 64 62 58 48 48 55 53 56 57 61 68 72 64 60
98 100 100 100 60 45 80 84 100 91 74 58 70 87 90 88 84 86 78 86 88 86 92 92 93 84 84 86 87 92 96 94 82 91 93 84 77 75 76 75 71 62 50 53 61 56 56 57 55 56 61 60 65 66
100 100 100 100 46 57 82 87 98 93 64 95 91 88 84 94 91 88 88 94 91 92 95 91 94 91 78 92 83 97 78 80 97 100 85 93 76 74 77 73 68 62 68 77 82 72 71 67 63 61 68 71 72 70
100 100 100 95 50 75 90 92 93 78 85 98 96 93 96 85 93 95 95 91 90 87 91 91 94 81 93 91 80 87 89 98 90 82 90 92 77 74 76 69 68 75 84 86 77 79 80 77 75 72 71 72 71 72
100 100 100 85 64 88 93 100 99 92 97 99 99 96 89 92 97 96 96 96 92 87 92 92 91 94 93 94 92 92 90 83 80 94 96 79 82 72 67 65 66 68 71 75 74 77 78 82 84 77 77 76 77 81
100 98 95 66 73 91 100 97 95 100 100 100 98 92 96 94 95 94 88 80 77 90 96 96 94 78 91 95 95 87 88 84 94 95 94 77 84 75 65 60 56 55 57 64 73 77 86 80 71 78 81 77 77 76
94 91 85 75 89 100 100 99 99 100 98 96 99 96 93 81 79 66 68 77 90 93 96 90 88 85 87 87 87 87 93 96 93 95 89 77 69 64 58 60 54 58 74 76 74 80 80 74 79 71 68 72 75 68
94 97 84 75 96 96 100 100 100 98 94 98 96 90 86 82 73 69 75 76 78 77 92 93 91 92 88 89 85 93 96 92 80 81 70 60 57 58 60 61 69 77 75 76 79 75 70 67 67 70 74 75 75 74
95 99 84 96 95 96 100 100 99 99 98 94 95 96 94 96 85 83 85 85 91 92 98 96 86 78 74 69 87 87 91 86 73 71 66 61 57 71 77 77 79 74 79 79 77 76 71 68 66 69 74 79 79 75
100 100 100 100 99 97 99 99 99 98 98 96 95 94 98 96 98 95 97 94 97 94 97 89 75 62 56 50 50 54 66 77 70 59 63 70 65 74 83 76 74 75 77 77 76 71 72 65 67 73 79 78 76 80
99 100 99 100 100 100 100 98 94 94 97 97 97 95 98 99 98 96 92 97 93 74 75 60 61 72 73 64 68 59 55 66 64 52 52 58 69 83 83 84 82 82 74 70 64 64 65 67 70 77 79 78 80 80
100 100 100 100 98 98 98 86 95 98 99 99 98 100 99 98 98 86 97 95 89 76 64 64 63 65 74 63 62 66 62 70 67 60 59 61 62 66 76 83 80 87 89 84 74 75 76 75 77 82 81 79 79 83
100 100 99 98 98 97 97 97 97 96 96 98 97 99 97 98 97 98 95 96 74 90 77 71 75 87 89 88 88 80 73 70 62 58 60 70 82 82 80 75 79 77 71 72 76 78 78 73 78 81 80 87 90 90
99 99 99 98 98 96 96 97 97 97 96 96 95 95 100 97 100 97 93 92 77 76 71 75 83 75 72 66 68 76 66 66 67 67 70 63 66 78 78 74 77 78 75 78 85 84 84 83 84 88 90 90 91 95
98 98 96 90 96 88 91 96 96 96 94 97 93 96 97 98 100 97 94 90 65 66 75 81 78 81 77 66 79 80 75 65 64 67 80 68 64 74 84 86 87 88 78 67 71 82 85 84 88 91 89 92 93 96
97 98 98 73 80 80 84 82 79 91 95 94 97 97 96 98 95 85 87 88 67 79 59 64 70 74 70 75 59 56 60 66 56 52 56 63 55 55 62 79 81 59 62 70 73 72 78 84 88 91 94 95 96 94
95 92 94 91 92 90 92 91 93 90 89 86 83 98 91 87 83 82 82 78 71 68 58 65 66 66 65 60 61 72 77 67 59 58 75 74 71 78 75 57 53 55 60 64 68 72 75 80 85 92 95 95 93 89
97 89 82 98 95 92 86 86 84 79 72 80 81 88 87 87 89 91 84 64 67 86 90 91 88 73 72 73 73 77 78 69 73 79 75 78 90 83 71 65 74 74 69 79 88 73 77 83 88 92 91 88 86 89
97 85 92 92 90 86 86 82 87 87 84 84 82 84 80 83 86 71 67 82 96 96 84 78 84 82 92 90 95 97 82 66 46 48 58 69 75 59 68 75 78 76 75 79 92 98 99 100 100 93 87 87 89 93
89 95 91 89 88 95 95 94 90 77 91 94 94 89 70 94 88 77 68 65 71 85 90 96 95 84 89 88 88 87 88 75 67 54 41 39 40 48 59 65 70 72 74 74 76 85 99 90 86 86 88 90 92 96
94 88 88 92 94 99 97 96 97 95 97 96 94 97 95 92 83 90 77 78 99 98 91 89 88 86 84 76 74 65 58 66 72 55 40 40 46 50 53 60 68 70 72 74 76 82 84 82 85 88 89 91 94 95
96 95 96 95 100 100 100 95 98 97 96 99 97 96 93 88 76 83 74 69 70 74 84 86 82 74 75 76 70 64 56 53 51 45 40 40 37 46 53 63 66 68 71 75 79 79 83 85 86 88 89 91 94 95
Wind_Speed
15 14 14 12 11 9 7 8 9 8 8 11 12 13 11 11 14 13 8 14 4 2 2 4 3 3 4 3 2 1 0 2 2 2 1 1 2 1 3 2 2 1 1 3 1 1 5 4 1 2 1 2 2 2
17 14 15 13 11 9 8 8 7 9 8 10 13 12 10 10 8 8 2 9 6 5 2 2 2 2 3 3 2 3 2 2 3 2 1 2 2 1 2 3 1 2 3 2 2 3 1 3 3 3 2 1 2 2
18 16 16 15 12 9 7 7 7 8 9 9 10 9 10 8 8 5 3 8 2 2 1 3 2 1 3 1 1 0 2 5 2 1 2 2 3 2 2 4 1 4 3 3 3 1 4 6 4 3 2 0 4 4
20 18 17 16 12 11 9 7 7 8 9 8 8 8 9 7 6 3 1 4 3 1 0 1 3 3 2 3 3 4 4 5 3 2 1 2 2 1 3 2 2 3 5 4 5 7 3 6 4 7 6 4 4 4
23 20 19 18 13 12 11 8 7 8 7 8 6 6 6 6 5 5 2 3 2 1 3 1 0 2 2 2 2 4 6 4 2 1 1 3 1 1 2 2 4 6 6 4 5 2 4 3 3 6 6 4 3 1
24 21 21 20 15 12 11 9 8 8 7 7 6 6 5 6 5 3 2 2 2 2 1 2 1 3 1 2 2 1 1 2 2 2 3 1 1 1 3 4 6 6 6 2 3 4 5 5 5 3 4 5 4 1
26 22 21 21 17 13 11 10 10 10 8 7 6 6 5 6 4 2 1 3 2 2 2 2 2 1 2 1 2 2 4 2 1 2 2 2 3 3 3 7 4 7 7 6 6 7 2 3 3 4 5 5 3 2
28 25 23 23 18 13 11 9 10 12 11 9 5 4 3 2 1 3 4 3 2 3 1 2 2 0 1 2 2 0 2 2 3 2 1 2 1 2 5 9 6 5 8 7 7 4 4 7 6 5 4 3 1 4
30 27 25 24 19 14 11 7 3 3 8 9 5 2 1 1 2 1 4 4 3 1 2 0 3 2 1 1 1 1 1 2 1 3 3 2 3 6 8 7 7 7 8 7 8 7 6 5 6 5 4 2 3 4
31 29 27 26 21 16 13 9 8 7 6 5 5 2 1 1 4 3 2 1 1 2 2 1 2 1 2 1 2 1 1 2 1 2 1 3 5 12 10 8 6 9 8 12 7 4 5 3 4 4 4 1 2 3
34 32 30 28 22 18 17 15 13 9 6 2 3 2 0 1 1 1 1 0 0 2 3 1 1 1 0 1 2 1 1 1 2 2 0 3 4 3 2 7 6 9 9 7 5 5 6 6 5 3 2 4 6 9
36 35 33 30 24 21 20 19 19 13 4 3 2 3 2 2 2 1 2 1 2 3 2 3 3 1 2 1 1 2 1 2 4 1 2 4 3 2 4 7 7 8 9 9 10 9 10 9 7 5 3 3 6 8
38 37 36 32 27 24 23 21 22 17 8 3 0 2 3 1 1 5 5 3 2 3 3 2 1 2 0 1 1 0 2 4 2 1 4 5 1 2 4 5 7 8 11 9 8 12 12 9 7 5 4 6 7 9
40 38 38 34 29 28 26 23 23 18 4 2 3 2 5 4 5 4 2 3 1 3 2 2 2 2 1 1 1 2 3 1 1 3 6 2 4 5 5 4 6 7 8 8 7 10 9 8 5 5 6 6 7 8
42 40 41 35 30 30 26 25 25 14 5 3 4 6 6 3 2 1 2 2 1 3 3 1 2 2 2 1 2 1 1 4 5 5 3 1 2 3 5 5 6 6 6 6 8 7 9 6 4 3 5 5 5 6
41 37 34 37 33 31 27 27 18 7 3 3 5 4 4 1 2 2 3 2 3 4 1 1 3 2 5 3 3 8 3 6 3 3 2 1 3 4 3 4 5 7 8 8 9 9 7 5 4 2 4 3 6 6
48 15 36 40 38 33 33 15 6 3 5 5 5 4 2 1 3 3 4 4 9 4 3 2 5 10 1 2 4 5 5 3 3 2 2 3 5 7 6 5 6 9 9 10 10 7 6 4 2 2 2 5 8 6
24 31 47 46 43 39 15 6 5 5 8 5 4 5 3 3 3 2 3 6 4 3 3 5 4 3 5 5 4 4 4 2 1 2 2 2 4 7 11 7 9 10 10 9 8 7 5 3 1 2 2 4 8 6
35 49 56 54 42 14 4 8 6 5 8 2 2 1 2 2 2 2 5 7 2 1 3 1 4 4 4 4 4 3 2 3 3 3 3 4 6 9 12 14 13 10 10 9 7 6 4 3 2 0 3 5 7 8
44 60 61 57 41 7 5 3 7 3 4 3 2 4 3 3 3 3 4 4 3 2 3 5 6 4 4 4 4 3 3 4 4 3 3 3 8 11 11 13 12 13 11 8 7 5 4 3 2 2 3 5 6 8
44 52 60 49 12 4 3 4 4 3 3 3 3 5 2 2 2 3 3 3 2 4 4 5 6 6 5 3 4 5 4 6 6 6 4 5 9 12 11 11 14 13 9 8 7 8 6 3 3 4 3 6 6 9
15 51 26 15 3 4 1 7 4 4 3 2 3 2 2 3 3 4 4 5 5 9 6 7 9 6 6 7 6 17 13 14 13 8 8 12 7 6 7 13 12 7 10 12 11 9 8 5 3 4 4 6 8 10
41 21 7 5 4 5 3 14 4 5 5 5 4 4 3 3 2 6 5 5 5 6 8 10 13 15 8 10 8 8 18 17 5 8 11 9 9 13 14 16 17 12 8 11 12 11 8 5 4 4 4 5 7 8
27 6 6 8 6 6 5 4 3 4 3 4 5 4 4 3 3 3 5 4 6 3 6 13 7 4 2 0 5 6 15 20 12 12 17 14 6 8 14 15 18 17 14 14 15 12 9 7 4 4 4 5 6 7
7 7 7 7 5 6 5 6 4 4 4 4 6 3 3 3 3 4 4 3 5 7 9 6 7 9 11 10 7 7 19 21 9 8 15 18 14 12 9 12 14 16 16 17 15 13 11 9 6 5 5 6 7 7
6 6 12 11 5 7 8 7 9 6 5 4 6 3 2 3 4 7 3 3 6 6 6 8 9 8 9 10 5 6 13 22 19 9 15 26 24 16 10 7 6 11 19 18 17 16 13 10 8 7 5 6 7 5
7 6 4 2 5 6 4 3 4 4 6 7 5 6 4 5 7 5 3 4 5 4 13 18 16 9 10 5 16 15 20 26 22 17 19 29 25 21 20 13 9 12 21 23 19 16 15 12 9 6 6 6 4 5
3 5 9 7 4 3 6 5 6 7 6 5 9 7 10 10 7 4 5 3 5 5 5 8 16 18 14 13 21 23 23 24 20 18 20 19 17 15 14 13 11 13 19 21 18 15 13 11 8 7 7 4 3 4
3 5 7 4 4 3 5 6 7 5 5 7 9 6 5 4 3 3 3 7 7 9 7 5 4 10 13 16 20 22 30 33 16 10 12 6 4 13 17 16 18 18 20 19 14 13 11 8 6 6 4 2 1 2
5 4 5 4 6 5 5 5 4 3 3 4 3 2 1 2 3 7 8 9 7 4 12 14 17 18 8 9 8 11 22 23 22 17 12 11 12 22 29 26 24 22 20 19 19 16 11 11 9 5 3 2 2 1
7 3 4 3 4 1 2 2 2 2 2 1 1 2 5 3 3 6 13 14 15 14 15 8 12 18 15 12 10 9 9 24 19 16 13 15 22 26 31 29 26 24 22 20 18 19 16 12 10 8 6 4 3 1
3 4 5 4 2 1 3 2 3 2 1 1 3 0 2 3 3 3 12 19 15 7 17 16 11 12 23 20 22 21 11 29 30 18 17 18 23 26 31 30 27 24 22 20 19 19 15 12 11 10 7 6 4 3
3 3 3 4 3 3 2 4 2 1 1 3 4 4 4 4 7 4 10 24 19 20 19 20 19 16 20 25 23 22 18 27 35 25 20 20 23 29 32 31 28 25 23 21 19 17 15 13 12 10 8 6 4 4
Wind_Direction
273 285 292 310 322 328 334 337 339 342 0 8 355 341 340 350 6 30 15 24 82 27 67 9 17 5 339 335 326 34 31 226 284 273 316 4 287 145 316 205 326 307 4 224 58 283 290 141 105 156 170 113 46 71
261 271 280 292 304 312 310 322 326 318 325 346 351 349 342 344 354 13 48 4 36 93 120 51 77 92 106 100 330 321 301 14 15 318 324 333 277 178 312 282 6 293 192 241 198 224 176 194 91 119 68 15 107 25
253 262 267 277 292 297 295 304 316 311 306 317 332 341 352 344 342 9 28 22 98 148 153 165 117 123 26 334 198 45 64 352 25 58 312 302 275 62 258 243 123 226 127 231 8 246 187 197 146 128 138 7 95 66
245 252 257 267 282 282 276 277 295 313 308 303 316 340 345 360 353 324 121 43 96 228 333 245 162 155 273 353 262 238 294 294 266 296 288 258 239 72 275 251 242 200 137 216 252 271 161 244 173 156 132 103 101 84
237 242 247 255 268 273 272 273 274 300 297 285 295 319 336 342 331 342 31 73 94 222 188 164 174 199 155 107 270 241 260 288 270 263 205 238 270 9 238 11 244 180 196 180 230 291 132 119 89 127 139 164 157 142
234 234 243 249 256 261 262 265 267 285 284 278 282 288 315 335 325 284 275 339 69 125 112 262 128 153 307 302 143 184 323 302 290 270 246 203 104 145 259 242 238 216 194 150 220 98 89 104 86 69 140 125 108 146
233 229 236 244 252 251 251 257 268 279 273 257 265 264 282 313 318 259 277 281 289 150 118 331 285 200 196 259 261 227 171 221 223 274 257 243 196 163 253 243 221 213 176 133 126 108 112 173 183 138 105 109 106 314
229 228 231 233 244 245 245 249 276 283 258 227 230 253 286 321 272 261 286 313 307 291 111 157 251 103 207 212 200 161 263 177 212 247 323 230 121 214 257 246 237 160 129 136 158 91 92 111 112 120 119 125 196 285
226 225 229 228 235 234 232 228 265 100 136 155 151 217 299 280 263 272 290 294 276 258 275 151 164 223 211 196 263 259 159 267 178 209 215 133 223 227 233 220 196 171 171 174 130 123 135 140 159 156 169 201 247 281
223 223 226 224 226 221 209 191 175 174 153 151 132 167 240 227 299 313 318 285 315 271 26 237 353 183 146 211 188 62 201 274 277 248 81 205 250 246 237 222 189 159 151 133 117 150 156 163 175 179 197 227 8 339
221 220 222 220 221 214 196 182 178 181 169 233 198 166 252 355 359 259 296 213 227 267 168 265 69 129 345 129 255 179 174 355 317 280 254 271 266 250 272 168 131 129 135 143 127 133 138 139 150 126 54 29 7 348
218 219 218 213 214 206 194 183 177 178 194 223 186 127 92 76 35 16 231 333 223 235 175 167 180 171 134 95 317 287 178 91 248 311 308 267 262 358 63 101 105 116 122 123 122 115 108 103 99 91 71 10 353 354
215 216 215 209 207 197 190 185 181 187 164 173 148 52 93 146 47 190 223 248 233 186 188 165 155 168 73 244 143 128 220 223 109 201 240 241 303 122 108 97 105 106 111 105 102 106 106 98 85 70 53 34 357 345
214 215 212 205 200 190 185 181 186 177 159 157 151 243 178 196 233 202 200 152 190 97 127 139 111 156 135 123 194 181 207 35 242 237 239 272 291 164 137 129 120 133 126 120 109 108 100 95 79 66 66 17 352 348
212 211 207 197 192 183 177 176 182 166 147 181 180 224 217 205 108 78 95 101 252 132 112 72 45 158 177 171 213 347 255 245 225 234 230 306 306 143 145 151 140 135 130 126 132 123 113 104 90 77 36 12 347 343
205 198 180 184 182 175 171 170 166 165 157 191 223 228 217 66 187 155 165 179 188 146 74 51 144 164 227 185 149 210 191 230 240 233 250 216 155 145 151 143 141 139 139 130 130 127 123 113 93 44 25 9 343 338
181 175 181 175 173 169 171 151 141 164 202 221 228 208 220 83 212 176 159 191 161 135 187 152 178 212 84 181 234 198 212 230 215 221 214 231 184 154 140 125 128 137 137 140 133 134 137 123 92 64 40 339 335 330
183 181 173 166 163 159 162 154 156 187 225 228 223 182 196 203 172 159 139 145 143 200 130 209 131 189 205 196 239 234 224 295 254 255 190 204 160 137 147 143 148 150 141 141 144 156 153 134 211 120 5 340 334 345
180 164 162 163 162 142 143 180 182 210 211 190 182 114 173 203 203 160 149 174 181 80 113 139 219 206 222 217 222 227 203 186 207 208 188 152 179 155 142 148 151 145 152 149 177 185 176 191 176 39 317 325 324 329
172 160 161 165 162 136 148 178 173 216 188 196 151 178 185 189 166 165 152 156 137 177 205 218 216 215 202 231 197 202 175 161 132 167 233 196 171 164 162 158 155 162 152 161 176 182 187 205 205 253 282 298 310 315
151 162 160 163 173 160 155 152 172 202 149 182 151 163 181 112 154 169 165 136 168 220 239 221 234 236 230 247 192 179 191 168 199 197 193 187 175 170 161 165 162 163 156 180 190 198 201 201 205 263 281 295 301 304
143 154 160 170 113 170 201 186 144 138 128 129 137 180 157 180 179 186 144 191 231 230 226 239 238 224 235 233 219 217 217 210 221 208 171 150 163 167 180 177 167 180 183 190 192 189 191 192 227 256 274 290 300 304
141 152 119 128 139 168 200 147 134 160 153 164 143 178 194 190 191 141 213 221 246 223 224 235 237 230 224 234 202 208 215 194 189 187 182 181 192 176 163 170 180 169 170 187 194 189 192 191 213 247 271 288 300 311
139 130 150 163 158 175 138 185 136 130 116 164 170 202 194 163 127 224 243 235 232 167 207 228 207 203 36 95 218 213 202 192 183 176 175 153 157 185 175 172 183 194 195 190 187 184 190 199 209 233 253 279 297 310
134 170 158 171 144 138 149 143 156 152 146 171 166 196 160 143 186 237 234 250 233 220 227 211 205 216 227 238 234 210 195 180 182 185 180 176 146 129 143 172 182 192 187 174 173 182 191 199 208 224 244 271 277 304
157 172 184 169 155 153 165 143 177 146 127 152 193 114 141 162 216 243 226 228 229 225 203 198 209 217 230 226 203 179 194 189 181 191 181 180 173 172 176 171 176 204 204 197 183 183 187 191 202 219 245 262 281 319
160 169 165 104 135 120 110 90 117 127 162 173 151 153 157 196 232 241 248 225 216 208 214 208 196 204 225 211 209 187 182 183 194 210 192 185 188 198 194 182 191 212 199 190 188 189 183 189 198 207 233 256 296 323
191 151 156 153 116 143 129 133 150 177 172 157 142 181 184 202 223 223 204 147 159 199 208 211 219 222 225 214 173 150 148 158 147 146 150 158 178 188 192 199 204 197 187 184 181 179 181 187 191 207 233 262 300 326
148 130 119 108 111 159 177 165 187 191 143 166 175 182 220 221 221 185 161 142 154 171 143 135 115 163 146 154 170 177 168 156 148 159 163 156 167 203 184 178 173 180 176 169 169 171 171 177 186 217 235 259 349 332
153 161 104 132 152 190 204 174 178 158 163 168 206 321 308 264 216 189 158 156 158 189 205 201 179 165 161 160 151 179 187 187 195 182 177 184 191 185 183 179 182 182 177 172 164 157 163 173 168 180 171 149 106 22
133 105 99 120 182 156 91 113 40 64 56 102 0 171 241 290 296 219 210 212 206 192 166 170 184 189 174 174 171 179 191 199 206 194 181 178 182 178 181 181 184 180 176 173 168 171 175 173 183 182 174 152 143 209
122 162 131 132 149 16 26 111 152 139 111 111 267 172 355 44 263 248 207 188 180 192 211 196 191 208 206 203 198 199 190 188 188 176 178 173 171 174 175 176 177 174 172 170 170 178 174 173 177 178 169 161 186 220
76 64 62 97 96 152 209 98 81 140 291 222 245 190 194 181 234 250 200 205 206 208 202 201 204 213 208 202 202 197 188 191 185 176 175 175 176 172 169 171 170 170 170 170 174 171 173 177 180 181 173 186 210 243